Volver al catálogo

STARLINK-6197

ActivoComunicacionesVLEO
NORAD 56767·PAYLOAD·🇺🇸 United States

Lanzado May 31, 2023 desde Vandenberg Space Force Base

Loading…

Próximos Pases (próximas 24 horas)

TLE

ActualizadoSource: CelesTrak SupGP

Época: Sep 15, 2026, 02:58 UTC

1 56767C 23078A   26258.12409722  .00023590  00000+0  95800-3 0  2582
2 56767  69.9874 215.0806 0006904 233.4057 359.2980 15.24433043    17

Sigue STARLINK-6197 en tiempo real con AllMySat

Download on the App Store